Weather History for DeKalb, IL

Change the Weather History Date:

Wednesday, January 29, 2014

  Actual Average (KARR) Record (KARR)
Temperature  
Mean Temperature 9 °F 21 °F  
Max Temperature 18 °F 30 °F 64 °F (2013)
Min Temperature 0 °F 12 °F -8 °F (2004)
Degree Days  
Heating Degree Days 56 44  
Month to date heating degree days 1278  
Since 1 July heating degree days 3927  
Cooling Degree Days 0 0  
Month to date cooling degree days 0  
Year to date cooling degree days 0  
Moisture  
Dew Point -1 °F    
Average Humidity 63    
Maximum Humidity 71    
Minimum Humidity 49    
Precipitation  
Precipitation 0.00 in 0.06 in 1.12 in (2013)
Month to date precipitation 1.35  
Year to date precipitation 1.35  
Sea Level Pressure  
Sea Level Pressure 30.11 in    
Wind  
Wind Speed 12 mph (SW)    
Max Wind Speed 21 mph    
Max Gust Speed 23 mph    
Visibility 10 miles    
Events      
T = Trace of Precipitation, MM = Missing Value Source: NWS Daily Summary

Daily Weather History Graph

Daily Weather History Graph

Search for Another Location

Airport:

Trip Planner

Search our weather history database for the weather conditions in past years. The results will help you decide how hot, cold, wet, or windy it might be!

Date:

Astronomy

Jan. 29, 2014 Rise Set
Actual Time 7:10 AM CST 5:06 PM CST
Civil Twilight 6:40 AM CST 5:35 PM CST
Nautical Twilight 6:07 AM CST 6:09 PM CST
Astronomical Twilight 5:34 AM CST 6:42 PM CST
Moon 5:47 AM CST (1/29) 4:05 PM CST (1/29)
Length of Visible Light 10h 55m
Length of Day
9h 55m
Waning Crescent, 2% of the Moon is Illuminated
Jan 29
Waning Crescent
Jan 30
New
Feb 6
First Quarter
Feb 14
Full
Feb 22
Last Quarter

Hourly Weather History & Observations

Time (CST) Temp. Windchill Dew Point Humidity Pressure Visibility Wind Dir Wind Speed Gust Speed Precip Events Conditions
12:15 AM 0.9 °F -15.1 °F -7.6 °F 68% 30.20 in 10.0 mi WSW 10.4 mph - N/A   Clear
12:35 AM 1.8 °F -14.0 °F -6.7 °F 68% 30.19 in 10.0 mi WSW 10.4 mph - N/A   Clear
12:55 AM 1.2 °F -13.7 °F -7.1 °F 68% 30.19 in 10.0 mi WSW 9.2 mph - N/A   Clear
1:15 AM 0.3 °F -14.8 °F -7.6 °F 69% 30.18 in 10.0 mi WSW 9.2 mph - N/A   Clear
1:35 AM 1.4 °F -13.5 °F -7.1 °F 68% 30.18 in 10.0 mi WSW 9.2 mph - N/A   Clear
1:55 AM 0.7 °F -14.4 °F -7.6 °F 68% 30.18 in 10.0 mi WSW 9.2 mph - N/A   Clear
2:15 AM 0.9 °F -13.1 °F -7.6 °F 68% 30.17 in 10.0 mi WSW 8.1 mph - N/A   Clear
2:35 AM 0.9 °F -14.2 °F -7.6 °F 68% 30.17 in 10.0 mi WSW 9.2 mph - N/A   Clear
2:55 AM 0.9 °F -14.2 °F -7.8 °F 67% 30.18 in 10.0 mi WSW 9.2 mph - N/A   Clear
3:15 AM 1.4 °F -15.3 °F -7.6 °F 66% 30.17 in 10.0 mi WSW 11.5 mph - N/A   Clear
3:35 AM 1.2 °F -15.6 °F -7.6 °F 67% 30.17 in 10.0 mi WSW 11.5 mph - N/A   Clear
3:55 AM 0.9 °F -15.1 °F -7.6 °F 68% 30.17 in 10.0 mi West 10.4 mph - N/A   Clear
4:15 AM 1.0 °F -15.8 °F -7.6 °F 67% 30.17 in 10.0 mi WSW 11.5 mph - N/A   Clear
4:35 AM 0.3 °F -14.8 °F -8.0 °F 68% 30.17 in 10.0 mi WSW 9.2 mph - N/A   Clear
4:55 AM 0.3 °F -16.7 °F -8.0 °F 68% 30.17 in 10.0 mi WSW 11.5 mph - N/A   Clear
5:15 AM 0.1 °F -16.0 °F -8.0 °F 69% 30.17 in 10.0 mi WSW 10.4 mph - N/A   Clear
5:35 AM -0.4 °F -14.7 °F -8.5 °F 69% 30.17 in 10.0 mi WSW 8.1 mph - N/A   Clear
5:55 AM -0.0 °F -16.3 °F -8.5 °F 68% 30.17 in 10.0 mi WSW 10.4 mph - N/A   Clear
6:15 AM -0.2 °F -17.4 °F -8.7 °F 67% 30.16 in 10.0 mi WSW 11.5 mph - N/A   Clear
6:35 AM 0.7 °F -16.2 °F -8.5 °F 65% 30.16 in 10.0 mi West 11.5 mph 17.3 mph N/A   Clear
6:55 AM 1.0 °F -16.6 °F -8.5 °F 64% 30.16 in 10.0 mi WSW 12.7 mph - N/A   Clear
7:15 AM 1.4 °F -16.9 °F -8.7 °F 63% 30.16 in 10.0 mi WSW 13.8 mph - N/A   Clear
7:35 AM 0.9 °F -16.8 °F -9.0 °F 63% 30.16 in 10.0 mi WSW 12.7 mph - N/A   Clear
7:55 AM 0.9 °F -15.1 °F -9.2 °F 63% 30.16 in 10.0 mi WSW 10.4 mph - N/A   Clear
8:15 AM 1.6 °F -13.3 °F -8.5 °F 63% 30.16 in 10.0 mi WSW 9.2 mph - N/A   Clear
8:35 AM 3.0 °F -11.5 °F -8.0 °F 60% 30.16 in 10.0 mi WSW 9.2 mph - N/A   Clear
8:55 AM 4.1 °F -9.2 °F -7.4 °F 59% 30.18 in 10.0 mi WSW 8.1 mph - N/A   Clear
9:15 AM 5.7 °F -8.2 °F -6.7 °F 57% 30.18 in 10.0 mi WSW 9.2 mph - N/A   Clear
9:35 AM 7.3 °F -9.3 °F -6.0 °F 55% 30.18 in 10.0 mi WSW 13.8 mph - N/A   Clear
9:55 AM 8.4 °F -7.3 °F -5.1 °F 54% 30.18 in 10.0 mi SW 12.7 mph 16.1 mph N/A   Clear
10:15 AM 9.3 °F -6.8 °F -4.7 °F 53% 30.17 in 10.0 mi SW 13.8 mph - N/A   Clear
10:35 AM 10.6 °F -2.2 °F -3.5 °F 53% 30.17 in 10.0 mi SW 9.2 mph - N/A   Clear
10:55 AM 11.3 °F -2.9 °F -3.1 °F 52% 30.17 in 10.0 mi WSW 11.5 mph - N/A   Clear
11:15 AM 12.2 °F -3.1 °F -3.5 °F 50% 30.16 in 10.0 mi WSW 13.8 mph - N/A   Clear
11:35 AM 13.1 °F -2.6 °F -2.9 °F 49% 30.15 in 10.0 mi SW 15.0 mph - N/A   Clear
11:55 AM 14.0 °F 0.5 °F -1.8 °F 49% 30.14 in 10.0 mi WSW 11.5 mph - N/A   Clear
12:15 PM 14.9 °F 0.9 °F -0.6 °F 50% 30.14 in 10.0 mi WSW 12.7 mph - N/A   Clear
12:35 PM 15.4 °F 2.3 °F 0.1 °F 51% 30.14 in 10.0 mi SW 11.5 mph - N/A   Clear
12:55 PM 15.6 °F 3.2 °F 1.2 °F 53% 30.14 in 10.0 mi SW 10.4 mph - N/A   Clear
1:15 PM 15.3 °F 2.8 °F 3.9 °F 61% 30.14 in 10.0 mi SSW 10.4 mph - N/A   Clear
1:35 PM 16.0 °F 3.6 °F 4.1 °F 60% 30.13 in 10.0 mi SSW 10.4 mph - N/A   Clear
1:55 PM 17.2 °F 5.2 °F 2.5 °F 52% 30.13 in 10.0 mi SW 10.4 mph - N/A   Clear
2:15 PM 17.6 °F 3.7 °F 4.1 °F 56% 30.12 in 10.0 mi SSW 13.8 mph - N/A   Clear
2:35 PM 18.1 °F 5.0 °F 4.8 °F 56% 30.11 in 10.0 mi SSW 12.7 mph - N/A   Clear
2:55 PM 18.3 °F 3.6 °F 4.8 °F 56% 30.11 in 10.0 mi SW 16.1 mph - N/A   Clear
3:15 PM 18.9 °F 6.5 °F 5.5 °F 56% 30.10 in 10.0 mi SSW 11.5 mph - N/A   Clear
3:35 PM 18.5 °F 6.1 °F 6.8 °F 60% 30.09 in 10.0 mi South 11.5 mph - N/A   Clear
3:55 PM 18.5 °F 5.5 °F 7.3 °F 62% 30.08 in 10.0 mi South 12.7 mph - N/A   Clear
4:15 PM 18.1 °F 5.6 °F 7.7 °F 64% 30.08 in 10.0 mi South 11.5 mph - N/A   Clear
4:35 PM 17.1 °F 5.0 °F 7.7 °F 67% 30.07 in 10.0 mi South 10.4 mph - N/A   Clear
4:55 PM 15.8 °F 2.1 °F 7.0 °F 68% 30.06 in 10.0 mi South 12.7 mph - N/A   Clear
5:15 PM 14.0 °F 0.5 °F 6.3 °F 71% 30.06 in 10.0 mi South 11.5 mph - N/A   Clear
5:35 PM 13.8 °F 1.0 °F 5.7 °F 70% 30.06 in 10.0 mi South 10.4 mph - N/A   Clear
5:55 PM 13.8 °F -1.1 °F 5.7 °F 70% 30.04 in 10.0 mi South 13.8 mph - N/A   Clear
6:15 PM 14.7 °F 1.4 °F 5.9 °F 68% 30.04 in 10.0 mi South 11.5 mph - N/A   Clear
6:35 PM 13.6 °F -1.3 °F 5.2 °F 69% 30.03 in 10.0 mi South 13.8 mph - N/A   Clear
6:55 PM 12.7 °F -1.8 °F 4.6 °F 70% 30.03 in 10.0 mi South 12.7 mph - N/A   Clear
7:15 PM 13.8 °F -1.1 °F 5.0 °F 68% 30.02 in 10.0 mi South 13.8 mph - N/A   Clear
7:35 PM 14.0 °F -1.4 °F 4.8 °F 67% 30.01 in 10.0 mi South 15.0 mph - N/A   Clear
7:55 PM 15.6 °F 0.1 °F 5.7 °F 65% 30.01 in 10.0 mi South 16.1 mph - N/A   Clear
8:15 PM 15.8 °F -0.2 °F 5.7 °F 64% 30.00 in 10.0 mi South 17.3 mph 21.9 mph N/A   Clear
8:35 PM 15.8 °F 0.3 °F 5.5 °F 64% 30.00 in 10.0 mi South 16.1 mph - N/A   Clear
8:55 PM 15.3 °F -0.9 °F 5.0 °F 64% 30.00 in 10.0 mi South 17.3 mph - N/A   Clear
9:15 PM 16.3 °F -0.4 °F 5.5 °F 63% 29.99 in 10.0 mi South 19.6 mph - N/A   Clear
9:35 PM 16.2 °F -0.2 °F 5.9 °F 64% 29.99 in 10.0 mi South 18.4 mph - N/A   Clear
9:55 PM 16.3 °F -0.4 °F 5.9 °F 64% 29.98 in 10.0 mi South 19.6 mph - N/A   Clear
10:15 PM 16.7 °F 0.1 °F 5.7 °F 62% 29.98 in 10.0 mi South 19.6 mph - N/A   Clear
10:35 PM 16.2 °F -0.6 °F 5.5 °F 63% 29.97 in 10.0 mi South 19.6 mph - N/A   Clear
10:55 PM 15.8 °F -0.2 °F 5.5 °F 64% 29.97 in 10.0 mi South 17.3 mph 23.0 mph N/A   Clear
11:15 PM 15.4 °F -1.1 °F 5.4 °F 64% 29.96 in 10.0 mi South 18.4 mph - N/A   Clear
11:35 PM 15.6 °F -1.8 °F 5.4 °F 64% 29.96 in 10.0 mi South 20.7 mph - N/A   Clear
11:55 PM 15.8 °F -0.6 °F 5.5 °F 64% 29.95 in 10.0 mi South 18.4 mph - N/A   Clear